Torna al catalogo

GORIZONT 29

AttivoComunicazioniGEO
NORAD 22907·PAYLOAD·🇷🇺 Russia

Lanciato Nov 18, 1993 da Baikonur Cosmodrome

Loading…

TLE

AggiornatoSource: Space-Track

Epoca: Sep 13, 2026, 23:55 UTC

1 22907U 93072A   26256.99709689  .00000062  00000-0  00000-0 0  9997
2 22907  13.9503 346.6733 0010453 359.6428  23.5377  1.00148731120066

Traccia GORIZONT 29 in tempo reale con AllMySat

Download on the App Store